Portada
METAR-TAF:

METAR-TAF

Aeroports :

Thoothukudi, Índia

latitud: 8-43-27N, longitud: 78-01-33E, altitud: 39 m

Observació

L'informe es va fer fa 1 hora i 40 minuts, a les 12:00 UTC
Vent 12 kt del Est/Sud-Est
Temperatura 32°C
Humitat 56%
Pressió 1011 hPa
Visibilitat: 6000 m
Escasses núvols a una alçada de 2000 ft

METAR: VOTK 171200Z 11012KT 6000 FEW020 32/22 Q1011 NOSIG

Hora: 19:10 (13:40 UTC)


TAF: manca

Observacions i pronòstics meteorològics de més de 4000 aeroports (METAR i TAF).

Les estacions disponibles són els punts grocs i vermells al mapa.

Posi el ratolí al punt desitjat per veure el nom de l'estació.

Feu clic per veure les observacions i els pronòstics meteorològics.

Per canviar el mapa: feu clic els botons verds amb una creu de color negre per apropar; al botó verd amb un guió per allunyar la imatge; o en les fletxes verdes per a mapes adjacents.


METAR-TAF: